Location: Fort Worth, Tx
(32.7431°N, 97.3695°W)
Time: 08:28:06
(UTC-04:00)

Explorer 11/Cluster Stage 4 - Pass Details

Date: 01 February 2023
Orbit: 466 x 1241 km, 28.8° (Epoch: 02 April)

Event Time Altitude Azimuth Distance (km) Brightness Sun altitude
Exits shadow 07:01:23 12° 234° (SW) 3,023 9.2 -17.7°
Maximum altitude 07:08:40 49° 163° (SSE) 1,552 8.2 -16.2°
Drops below altitude 10° 07:16:18 10° 92° (E) 3,124 11.0 -14.6°
Sets 07:19:09 0° 87° (E) 4,024 11.9 -14.0°
